[[{"header":{"parameterUnit":"m.s-1","parameterCategory":1,"la1":30.2991,"la2":30.254,"lo1":-89.0895,"lo2":-89.0444,"dy":0.0017,"dx":0.0017,"nx":28,"ny":28,"refTime":"2023-10-19T03:00:00:Z","depth":0,"parameterNumber":2,"parameterNumberName":"U-component_of_WINDS"},"data":[0,0,0,0,0,0,0,0,0,0,0,0,0,0,0,0,0,0,0,0,0,0,0,0,0,0,0,0,0,0,0,0,0,0,0,0,0,0,0,0,0,0,0,0,0,0,0,0,0,0,0,0,0,0,0,0,0,0,-0.7392,-0.7391,0,-0.7324,-0.7323,-0.7323,-0.7277,-0.7276,-0.7276,-0.7276,-0.7207,-0.7206,-0.7204,0,0,0,0,0,0,0,0,0,0,0,0,0,-0.7484,-0.7483,-0.7392,-0.7391,-0.7391,-0.7324,-0.7323,-0.7322,-0.7277,-0.7276,-0.7276,-0.7276,-0.7208,-0.7206,-0.7204,0,0,0,0,0,0,0,0,0,0,0,0,0,-0.7433,-0.7482,-0.7392,-0.736,-0.7356,-0.7324,-0.7323,-0.7322,-0.7277,-0.7276,-0.7276,-0.7275,-0.7208,-0.7206,-0.7204,-0.72,0,0,-0.7197,-0.7196,0,0,0,0,0,0,0,0,-0.7436,-0.743,-0.7365,-0.7362,-0.7358,-0.7308,-0.7331,-0.7281,-0.7277,-0.7307,-0.7276,-0.7275,-0.7241,-0.7236,-0.7225,-0.7196,-0.7193,-0.7197,-0.7195,-0.7194,-0.7194,0,0,0,0,0,0,0,-0.744,-0.7433,-0.7365,-0.7365,-0.736,-0.7349,-0.7341,-0.7321,-0.7278,-0.7304,-0.7301,-0.7293,-0.7239,-0.7227,-0.7223,-0.7192,-0.7197,-0.7195,-0.7193,-0.7192,-0.7158,-0.7158,0,0,0,0,0,0,-0.7448,-0.7436,-0.7367,-0.7363,-0.7397,-0.7348,-0.7339,-0.7325,-0.7278,-0.727,-0.7294,-0.7292,-0.7231,-0.7225,-0.722,-0.7212,-0.7194,-0.7192,-0.7191,-0.7157,-0.7158,-0.7158,0,0,0,0,0,0,-0.745,-0.7443,-0.737,-0.7399,-0.7388,-0.7347,-0.7331,-0.7324,-0.7311,-0.727,-0.7262,-0.7289,-0.7231,-0.7223,-0.7205,-0.7209,-0.7191,-0.7189,-0.7157,-0.7158,-0.7158,-0.7197,0,0,0,0,0,0,-0.7453,-0.7444,-0.7441,-0.7399,-0.7387,-0.7356,-0.7331,-0.7323,-0.7307,-0.7304,-0.7264,-0.7256,-0.723,-0.7209,-0.7203,-0.7206,-0.7187,-0.7156,-0.7157,-0.7158,-0.7195,-0.7199,-0.7202,0,0,0,0,0,-0.7457,-0.7455,-0.7441,-0.7433,-0.7383,-0.7356,-0.735,-0.7318,-0.7308,-0.7305,-0.7279,-0.7258,-0.721,-0.7207,-0.72,-0.7203,-0.7156,-0.7157,-0.7158,-0.7193,-0.7198,-0.7202,0,0,0,0,0,0,-0.7499,-0.7449,-0.7433,-0.7417,-0.7391,-0.7349,-0.7344,-0.7324,-0.7301,-0.7299,-0.7261,-0.7253,-0.7238,-0.7219,-0.7217,-0.7196,-0.718,-0.718,-0.721,-0.7214,-0.7217,-0.7222,-0.7185,0,0,0,0,0,-0.7506,-0.7488,-0.7445,-0.7436,-0.7424,-0.7386,-0.7374,-0.7352,-0.7324,-0.7313,-0.7285,-0.7258,-0.7238,-0.7225,-0.7203,-0.7192,-0.7183,-0.719,-0.7194,-0.7197,-0.7197,-0.719,-0.7193,-0.7162,-0.7162,-0.7162,0,0,-0.7522,-0.7492,-0.7483,-0.7444,-0.7421,-0.7404,-0.7377,-0.736,-0.7347,-0.731,-0.7291,-0.727,-0.7238,-0.7224,-0.7216,-0.7207,-0.7204,-0.7198,-0.7201,-0.7199,-0.7192,-0.7195,-0.7197,-0.7162,-0.7162,-0.7162,0,0,-0.7541,-0.7516,-0.7506,-0.7484,-0.745,-0.7425,-0.7423,-0.7383,-0.7367,-0.7347,-0.732,-0.7304,-0.7268,-0.7247,-0.7232,-0.7244,-0.7224,-0.7238,-0.7256,-0.725,-0.7253,-0.7255,-0.7259,-0.7261,-0.7238,-0.7238,-0.7238,0,-0.7564,-0.7536,-0.7503,-0.7487,-0.7471,-0.7437,-0.7426,-0.7406,-0.7367,-0.7357,-0.7348,-0.7303,-0.7279,-0.726,-0.7263,-0.7251,-0.7248,-0.7242,-0.7255,-0.7256,-0.7258,-0.7262,-0.7264,-0.724,-0.724,-0.724,-0.724,0,-0.7567,-0.7549,-0.7544,-0.7507,-0.749,-0.7478,-0.7443,-0.743,-0.741,-0.7387,-0.7368,-0.7338,-0.731,-0.7304,-0.7284,-0.7282,-0.7277,-0.7262,-0.7245,-0.7263,-0.7267,-0.7268,-0.7243,-0.7242,-0.7242,-0.7241,0,0,-0.7611,-0.7556,-0.7555,-0.7538,-0.7498,-0.7483,-0.7469,-0.7441,-0.7432,-0.7406,-0.7394,-0.7365,-0.735,-0.7333,-0.7311,-0.7305,-0.7318,-0.729,-0.7289,-0.7297,-0.7314,-0.7326,-0.7328,-0.7304,-0.7304,-0.7304,-0.7316,0,-0.7624,-0.7596,-0.7566,-0.7549,-0.7532,-0.7499,-0.7487,-0.7462,-0.744,-0.7422,-0.7398,-0.7378,-0.7361,-0.735,-0.7343,-0.7318,-0.732,-0.7316,-0.7293,-0.7292,-0.7302,-0.733,-0.7342,-0.7355,-0.7317,-0.7318,-0.7318,0,-0.7636,-0.7612,-0.7593,-0.7555,-0.7547,-0.7536,-0.7509,-0.7493,-0.7464,-0.7448,-0.7429,-0.7405,-0.739,-0.7375,-0.7353,-0.7351,-0.7339,-0.7325,-0.7325,-0.7322,-0.7306,-0.7328,-0.7359,-0.7361,-0.7319,-0.7319,-0.7319,0,-0.767,-0.7633,-0.7617,-0.7604,-0.7559,-0.7553,-0.7534,-0.7504,-0.749,-0.7466,-0.7457,-0.7432,-0.7418,-0.74,-0.737,-0.7362,-0.7352,-0.7334,-0.7339,-0.734,-0.7338,-0.7339,-0.7368,-0.733,-0.733,-0.733,-0.733,0,-0.7688,-0.7678,-0.7632,-0.7622,-0.761,-0.7576,-0.7565,-0.7544,-0.7518,-0.7504,-0.7474,-0.7462,-0.7423,-0.7407,-0.7384,-0.7369,-0.7363,-0.7351,-0.7345,-0.7354,-0.7355,-0.7346,-0.7344,-0.7331,-0.7331,-0.7331,-0.7331,0,-0.7725,-0.7693,-0.7674,-0.7633,-0.7623,-0.7616,-0.7581,-0.7571,-0.7548,-0.753,-0.7524,-0.7488,-0.7467,-0.7435,-0.7405,-0.7389,-0.7379,-0.7369,-0.7389,-0.7385,-0.7391,-0.7392,-0.7416,-0.7418,-0.7379,-0.738,-0.738,0,-0.7739,-0.773,-0.7689,-0.7677,-0.7659,-0.7641,-0.7626,-0.7592,-0.7578,-0.7545,-0.7539,-0.7515,-0.7494,-0.7462,-0.7433,-0.741,-0.74,-0.741,-0.7396,-0.7405,-0.74,-0.7401,-0.74,-0.7413,-0.7414,-0.7414,-0.7415,0,-0.7767,-0.7752,-0.7731,-0.7705,-0.7688,-0.7666,-0.7643,-0.7636,-0.7597,-0.7583,-0.756,-0.7545,-0.7513,-0.7491,-0.7464,-0.7445,-0.7424,-0.7419,-0.7419,-0.7428,-0.744,-0.7434,-0.7398,-0.7419,-0.7418,-0.7418,-0.7418,-0.7418,-0.7792,-0.7784,-0.7753,-0.7731,-0.771,-0.769,-0.7678,-0.7653,-0.7634,-0.7606,-0.7587,-0.7566,-0.7538,-0.7499,-0.7482,-0.7465,-0.7456,-0.7456,-0.7456,-0.7456,-0.746,-0.7443,-0.746,-0.746,-0.746,-0.746,-0.7459,0,-0.782,-0.7798,-0.7779,-0.7747,-0.773,-0.7711,-0.7685,-0.7672,-0.7654,-0.7629,-0.761,-0.7585,-0.7563,-0.7532,-0.7508,-0.7501,-0.749,-0.7496,-0.7496,-0.7492,-0.7469,-0.7472,-0.7504,-0.7504,-0.7504,-0.7504,-0.7504,-0.7504,-0.7832,-0.7816,-0.7797,-0.7771,-0.775,-0.7729,-0.7715,-0.7696,-0.7676,-0.765,-0.7631,-0.7611,-0.7584,-0.7558,-0.7537,-0.7529,-0.7522,-0.753,-0.7519,-0.7498,-0.7494,-0.749,-0.7492,-0.7529,-0.7529,-0.7543,-0.7543,-0.7543]},{"header":{"parameterUnit":"m.s-1","parameterCategory":1,"la1":30.2991,"la2":30.254,"lo1":-89.0895,"lo2":-89.0444,"dy":0.0017,"dx":0.0017,"nx":28,"ny":28,"refTime":"2023-10-19T03:00:00:Z","depth":0,"parameterNumber":3,"parameterNumberName":"V-component_of_WINDS"},"data":[0,0,0,0,0,0,0,0,0,0,0,0,0,0,0,0,0,0,0,0,0,0,0,0,0,0,0,0,0,0,0,0,0,0,0,0,0,0,0,0,0,0,0,0,0,0,0,0,0,0,0,0,0,0,0,0,0,0,2.584,2.5839,0,2.5782,2.5782,2.5781,2.5739,2.5738,2.5738,2.5738,2.5673,2.5672,2.567,0,0,0,0,0,0,0,0,0,0,0,0,0,2.5909,2.5908,2.584,2.5839,2.5839,2.5782,2.5782,2.5781,2.5739,2.5738,2.5738,2.5738,2.5674,2.5672,2.567,0,0,0,0,0,0,0,0,0,0,0,0,0,2.5868,2.5908,2.584,2.5811,2.5808,2.5782,2.5781,2.578,2.5739,2.5738,2.5738,2.5737,2.5674,2.5672,2.567,2.5667,0,0,2.5664,2.5663,0,0,0,0,0,0,0,0,2.587,2.5866,2.5816,2.5813,2.5809,2.5767,2.5782,2.5742,2.5739,2.5765,2.5738,2.5737,2.5704,2.57,2.569,2.5664,2.5661,2.5663,2.5662,2.5661,2.5661,0,0,0,0,0,0,0,2.5873,2.5868,2.5817,2.5815,2.5811,2.5799,2.5793,2.5774,2.5738,2.5763,2.5759,2.5753,2.5702,2.5692,2.5688,2.5661,2.5663,2.5662,2.566,2.5659,2.5628,2.5629,0,0,0,0,0,0,2.5881,2.587,2.5819,2.5815,2.5839,2.5798,2.5791,2.5781,2.5738,2.5731,2.5754,2.5752,2.5696,2.5691,2.5686,2.5679,2.5661,2.5659,2.5658,2.5628,2.5628,2.5629,0,0,0,0,0,0,2.5883,2.5877,2.5821,2.5842,2.5834,2.5798,2.5787,2.578,2.577,2.5732,2.5725,2.575,2.5695,2.5689,2.5672,2.5676,2.5658,2.5656,2.5627,2.5628,2.5629,2.5665,0,0,0,0,0,0,2.5885,2.5878,2.5878,2.5842,2.5833,2.581,2.5787,2.578,2.5767,2.5764,2.5726,2.572,2.5694,2.5676,2.567,2.5673,2.5655,2.5627,2.5628,2.5628,2.5663,2.5667,2.567,0,0,0,0,0,2.5888,2.589,2.5878,2.5872,2.5832,2.5811,2.5805,2.5778,2.5768,2.5766,2.5742,2.5721,2.5677,2.5674,2.5668,2.567,2.5626,2.5627,2.5628,2.5662,2.5666,2.567,0,0,0,0,0,0,2.5925,2.5884,2.5871,2.5862,2.584,2.5804,2.5801,2.5783,2.5763,2.576,2.5725,2.5717,2.5704,2.5685,2.5683,2.5664,2.5649,2.5649,2.5677,2.568,2.5684,2.5688,2.5653,0,0,0,0,0,2.5932,2.592,2.5884,2.5879,2.587,2.5838,2.5827,2.5808,2.5783,2.5773,2.5747,2.5723,2.5703,2.5691,2.5671,2.5661,2.5651,2.5659,2.5662,2.5665,2.5665,2.5657,2.5659,2.5632,2.5632,2.5632,0,0,2.5946,2.5923,2.5917,2.5886,2.5867,2.5853,2.583,2.5816,2.5805,2.5771,2.5754,2.5734,2.5704,2.5691,2.5684,2.5675,2.5671,2.5667,2.5669,2.5667,2.5658,2.5661,2.5663,2.5633,2.5633,2.5632,0,0,2.5965,2.5947,2.594,2.5922,2.5894,2.5873,2.5872,2.5838,2.5824,2.5807,2.5781,2.5766,2.5734,2.5713,2.5699,2.571,2.569,2.5705,2.5721,2.5714,2.5716,2.5717,2.572,2.5722,2.5705,2.5705,2.5705,0,2.5986,2.5966,2.5939,2.5927,2.5913,2.5884,2.5876,2.5859,2.5825,2.5816,2.5807,2.5766,2.5744,2.5724,2.5727,2.5717,2.5713,2.5708,2.5718,2.5719,2.572,2.5722,2.5724,2.5707,2.5706,2.5706,2.5706,0,2.5992,2.5978,2.5976,2.5946,2.5932,2.5923,2.5893,2.5882,2.5864,2.5843,2.5826,2.5798,2.5772,2.5766,2.5748,2.5744,2.5739,2.5725,2.5708,2.5725,2.5727,2.5727,2.5709,2.5709,2.5708,2.5708,0,0,2.603,2.5987,2.5986,2.5972,2.594,2.5927,2.5916,2.5892,2.5882,2.586,2.5848,2.5822,2.5808,2.5792,2.5771,2.5765,2.5774,2.5751,2.5749,2.5755,2.5766,2.5776,2.5778,2.5761,2.5761,2.5761,2.5768,0,2.6043,2.6022,2.5998,2.5984,2.597,2.5942,2.5932,2.591,2.589,2.5874,2.5851,2.5833,2.5817,2.5807,2.58,2.5775,2.5776,2.5774,2.5747,2.5747,2.5754,2.5779,2.5789,2.5797,2.5769,2.5769,2.5769,0,2.6054,2.6036,2.6021,2.599,2.5983,2.5974,2.595,2.5936,2.591,2.5896,2.5878,2.5856,2.584,2.5827,2.5804,2.5803,2.5791,2.5777,2.5777,2.5772,2.5758,2.5773,2.5799,2.58,2.577,2.5769,2.5769,0,2.6082,2.6053,2.6041,2.603,2.5993,2.5987,2.5971,2.5945,2.5932,2.591,2.5901,2.5877,2.5864,2.5845,2.5817,2.581,2.5796,2.5781,2.5782,2.5783,2.5779,2.5779,2.5802,2.5774,2.5774,2.5774,2.5774,0,2.6098,2.609,2.6053,2.6045,2.6035,2.6007,2.5996,2.5978,2.5955,2.5941,2.5915,2.5903,2.5867,2.585,2.5828,2.5811,2.5805,2.5792,2.5786,2.5794,2.5795,2.5784,2.5782,2.5774,2.5774,2.5774,2.5774,0,2.6127,2.6102,2.6086,2.6053,2.6045,2.6039,2.6009,2.6,2.5979,2.5963,2.5957,2.5924,2.5902,2.5873,2.5842,2.5827,2.5812,2.5804,2.5822,2.5818,2.582,2.582,2.5835,2.5835,2.5809,2.5809,2.5809,0,2.6137,2.6131,2.6098,2.6088,2.6073,2.6058,2.6045,2.6016,2.6004,2.5974,2.5967,2.5944,2.5924,2.5891,2.5862,2.5838,2.5828,2.5835,2.5824,2.5831,2.5826,2.5826,2.5824,2.5837,2.5837,2.5838,2.5838,0,2.6159,2.6147,2.613,2.6109,2.6095,2.6076,2.6056,2.6049,2.6017,2.6003,2.5982,2.5967,2.5936,2.5912,2.5885,2.5866,2.5846,2.5842,2.5841,2.5848,2.5858,2.5851,2.5827,2.5841,2.5841,2.5841,2.5841,2.584,2.6177,2.617,2.6146,2.6128,2.611,2.6092,2.6082,2.6061,2.6043,2.6017,2.6001,2.598,2.5953,2.5914,2.5896,2.5878,2.587,2.5869,2.5868,2.5868,2.587,2.5863,2.5873,2.5873,2.5873,2.5873,2.5873,0,2.6196,2.6179,2.6163,2.6137,2.6123,2.6108,2.6085,2.6073,2.6056,2.6033,2.6015,2.599,2.5967,2.5938,2.5913,2.5904,2.5894,2.5898,2.5897,2.5893,2.5879,2.5882,2.5906,2.5906,2.5906,2.5906,2.5906,2.5906,2.6204,2.619,2.6176,2.6153,2.6135,2.6116,2.6104,2.6087,2.6069,2.6043,2.6025,2.6007,2.5981,2.5954,2.5932,2.5924,2.5915,2.5922,2.591,2.5897,2.5894,2.5891,2.5894,2.592,2.592,2.5926,2.5926,2.5926]}]]